OneWeb SL0041

operational
NORAD ID: 45148 Int'l Des: 2020-008 Owner: ONEWEB Country: UK Constellation: oneweb
LEOCIRCULARPOLAR

Über OneWeb SL0041

Beschreibung wird geladen...

Live-Position

3D-Globus wird geladen...

Nächste Überflüge

Höhenverlauf

Altitude vs Time

uPlot chart will show altitude changes over time

Zweizeiliger Elementsatz

1 45148U 20008T 25350.15568141 .00000073 00000-0 94978-4 0 9999
2 45148 87.9325 42.0569 0018713 44.0180 316.2456 13.48581329293387
Epoch: 16. Dez. 2025 • Age: 20 hours

Aktueller Status

Höhe 1085.1 km
Geschwindigkeit 7.31 km/s
Subsatellitenpunkt 48.18°N, 134.1°E
Startdatum 6. Feb. 2020
Alter 5.8 years
Typ internet

Technische Details

Klassifizierung Payload
Masse 148.00 kg
Trockenmasse 140.00 kg
Gesamtmasse 148.00 kg
Länge 1.30 m
Durchmesser 1.00 m
Spannweite 5.00 m
Form Trapezoid+2 pan
Hersteller ONEWUS
Bus-Typ ARROW
Phasenstatus In Orbit
Besitzer/Staat ONEWEB/UK

Große Konstellationen

Loading constellations...